| time (UTC) | temp F | wind direction | speed MPH | gust MPH | rain 1hr in | rain 24hr in | rain mn in | humidity % | barometer mb |
| 20260508035555 | 43 | 228 | 0.0 | 0.0 | 0.00 | 0.00 | 0.00 | 67 | 1007.3 |
| 20260508035052 | 43 | 231 | 0.0 | 0.0 | 0.00 | 0.00 | 0.00 | 66 | 1007.1 |
| 20260508034549 | 43 | 231 | 0.0 | 0.0 | 0.00 | 0.00 | 0.00 | 66 | 1007.2 |
| 20260508034046 | 44 | 231 | 0.0 | 0.0 | 0.00 | 0.00 | 0.00 | 65 | 1007.2 |
| 20260508033543 | 44 | 232 | 1.0 | 1.0 | 0.00 | 0.00 | 0.00 | 64 | 1007.3 |
| 20260508033042 | 44 | 151 | 1.0 | 1.0 | 0.00 | 0.00 | 0.00 | 63 | 1007.2 |
| 20260508032538 | 45 | 193 | 0.0 | 1.0 | 0.00 | 0.00 | 0.00 | 63 | 1007.1 |
| 20260508032036 | 45 | 107 | 0.0 | 0.0 | 0.00 | 0.00 | 0.00 | 62 | 1007.2 |
| 20260508031533 | 46 | 89 | 0.0 | 0.0 | 0.00 | 0.00 | 0.00 | 61 | 1007.1 |
| 20260508031028 | 46 | 116 | 0.0 | 0.0 | 0.00 | 0.00 | 0.00 | 58 | 1007.1 |
| 20260508030525 | 47 | 147 | 0.0 | 1.0 | 0.00 | 0.00 | 0.00 | 58 | 1007.0 |
| 20260508030023 | 47 | 118 | 0.0 | 0.0 | 0.00 | 0.00 | 0.00 | 54 | 1007.2 |
| 20260508025519 | 48 | 115 | 0.0 | 0.0 | 0.00 | 0.00 | 0.00 | 55 | 1007.2 |
| 20260508025016 | 48 | 124 | 0.0 | 0.0 | 0.00 | 0.00 | 0.00 | 51 | 1007.1 |
| 20260508024512 | 48 | 131 | 0.0 | 0.0 | 0.00 | 0.00 | 0.00 | 51 | 1007.0 |
| 20260508024009 | 49 | 123 | 0.0 | 0.0 | 0.00 | 0.00 | 0.00 | 50 | 1007.0 |
| 20260508023506 | 49 | 99 | 0.0 | 1.0 | 0.00 | 0.00 | 0.00 | 52 | 1007.1 |
| 20260508023003 | 48 | 226 | 0.0 | 0.0 | 0.00 | 0.00 | 0.00 | 51 | 1006.8 |
| 20260508022459 | 48 | 181 | 0.0 | 0.0 | 0.00 | 0.00 | 0.00 | 55 | 1007.0 |
| 20260508021955 | 48 | 132 | 0.0 | 0.0 | 0.00 | 0.00 | 0.00 | 55 | 1006.9 |
| 20260508021452 | 48 | 132 | 0.0 | 0.0 | 0.00 | 0.00 | 0.00 | 56 | 1007.1 |
| 20260508020948 | 48 | 177 | 0.0 | 0.0 | 0.00 | 0.00 | 0.00 | 56 | 1006.9 |
| 20260508020446 | 48 | 119 | 0.0 | 0.0 | 0.00 | 0.00 | 0.00 | 57 | 1006.8 |
| 20260508015942 | 49 | 139 | 0.0 | 0.0 | 0.00 | 0.00 | 0.00 | 55 | 1006.9 |
| 20260508015440 | 49 | 136 | 0.0 | 0.0 | 0.00 | 0.00 | 0.00 | 53 | 1006.7 |
| 20260508014937 | 50 | 145 | 0.0 | 0.0 | 0.00 | 0.00 | 0.00 | 49 | 1006.5 |
| 20260508014433 | 50 | 148 | 0.0 | 0.0 | 0.00 | 0.00 | 0.00 | 47 | 1006.5 |
| 20260508013929 | 50 | 287 | 0.0 | 0.0 | 0.00 | 0.00 | 0.00 | 47 | 1006.2 |
| 20260508013425 | 50 | 287 | 0.0 | 0.0 | 0.00 | 0.00 | 0.00 | 48 | 1006.3 |
| 20260508012923 | 50 | 164 | 0.0 | 0.0 | 0.00 | 0.00 | 0.00 | 48 | 1006.1 |
| 20260508012420 | 50 | 117 | 0.0 | 1.0 | 0.00 | 0.00 | 0.00 | 51 | 1006.2 |
| 20260508011917 | 50 | 143 | 0.0 | 1.0 | 0.00 | 0.00 | 0.00 | 52 | 1006.1 |
| 20260508011415 | 50 | 186 | 0.0 | 0.0 | 0.00 | 0.00 | 0.00 | 50 | 1005.9 |
| 20260508010912 | 51 | 164 | 0.0 | 0.0 | 0.00 | 0.00 | 0.00 | 47 | 1005.9 |
| 20260508010409 | 51 | 172 | 0.0 | 0.0 | 0.00 | 0.00 | 0.00 | 45 | 1006.1 |
| 20260508005906 | 52 | 149 | 0.0 | 0.0 | 0.00 | 0.00 | 0.00 | 43 | 1005.9 |
| 20260508005403 | 52 | 144 | 0.0 | 0.0 | 0.00 | 0.00 | 0.00 | 42 | 1005.9 |
| 20260508004900 | 52 | 163 | 0.0 | 0.0 | 0.00 | 0.00 | 0.00 | 41 | 1005.7 |
| 20260508004356 | 52 | 135 | 0.0 | 0.0 | 0.00 | 0.00 | 0.00 | 41 | 1005.7 |
| 20260508003852 | 53 | 122 | 0.0 | 0.0 | 0.00 | 0.00 | 0.00 | 40 | 1005.5 |
| 20260508003349 | 53 | 124 | 0.0 | 0.0 | 0.00 | 0.00 | 0.00 | 39 | 1005.4 |
| 20260508002847 | 53 | 166 | 0.0 | 2.0 | 0.00 | 0.00 | 0.00 | 37 | 1005.4 |
| 20260508002343 | 53 | 133 | 0.0 | 0.0 | 0.00 | 0.00 | 0.00 | 37 | 1005.3 |
| 20260508001839 | 54 | 156 | 0.0 | 0.0 | 0.00 | 0.00 | 0.00 | 38 | 1005.4 |
| 20260508001335 | 55 | 183 | 1.0 | 1.0 | 0.00 | 0.00 | 0.00 | 36 | 1005.4 |
| 20260508000832 | 55 | 261 | 2.0 | 2.0 | 0.00 | 0.00 | 0.00 | 35 | 1005.4 |
| 20260508000328 | 55 | 267 | 4.0 | 6.0 | 0.00 | 0.00 | 0.00 | 35 | 1005.2 |
| 20260507235825 | 55 | 198 | 1.0 | 3.0 | 0.00 | 0.00 | 0.00 | 35 | 1005.2 |
| 20260507235323 | 56 | 263 | 0.0 | 4.0 | 0.00 | 0.00 | 0.00 | 35 | 1005.2 |
| 20260507234819 | 56 | 268 | 1.0 | 2.0 | 0.00 | 0.00 | 0.00 | 34 | 1005.1 |
| 20260507234316 | 56 | 335 | 1.0 | 2.0 | 0.00 | 0.00 | 0.00 | 34 | 1005.0 |
| 20260507233812 | 56 | 272 | 2.0 | 8.0 | 0.00 | 0.00 | 0.00 | 33 | 1005.0 |
| 20260507233310 | 57 | 152 | 1.0 | 4.0 | 0.00 | 0.00 | 0.00 | 34 | 1005.2 |
| 20260507232808 | 57 | 266 | 1.0 | 6.0 | 0.00 | 0.00 | 0.00 | 33 | 1005.0 |
| 20260507232306 | 57 | 135 | 0.0 | 4.0 | 0.00 | 0.00 | 0.00 | 33 | 1004.7 |
| 20260507231801 | 58 | 285 | 2.0 | 4.0 | 0.00 | 0.00 | 0.00 | 32 | 1004.8 |
| 20260507231258 | 58 | 285 | 3.0 | 9.0 | 0.00 | 0.00 | 0.00 | 31 | 1004.8 |
| 20260507230754 | 59 | 220 | 5.0 | 6.0 | 0.00 | 0.00 | 0.00 | 31 | 1004.9 |
| 20260507230252 | 59 | 227 | 1.0 | 6.0 | 0.00 | 0.00 | 0.00 | 31 | 1004.8 |
| 20260507225752 | 60 | 276 | 6.0 | 7.0 | 0.00 | 0.00 | 0.00 | 30 | 1004.8 |
| 20260507225248 | 60 | 199 | 1.0 | 3.0 | 0.00 | 0.00 | 0.00 | 30 | 1004.7 |
| 20260507224744 | 60 | 286 | 6.0 | 9.0 | 0.00 | 0.00 | 0.00 | 30 | 1004.7 |
| 20260507224241 | 60 | 306 | 3.0 | 4.0 | 0.00 | 0.00 | 0.00 | 31 | 1004.9 |
| 20260507223737 | 60 | 313 | 3.0 | 4.0 | 0.00 | 0.00 | 0.00 | 31 | 1004.6 |
| 20260507223234 | 60 | 301 | 5.0 | 8.0 | 0.00 | 0.00 | 0.00 | 30 | 1004.6 |
| 20260507222730 | 60 | 261 | 1.0 | 6.0 | 0.00 | 0.00 | 0.00 | 30 | 1004.3 |
| 20260507222227 | 60 | 233 | 2.0 | 7.0 | 0.00 | 0.00 | 0.00 | 30 | 1004.6 |
| 20260507221724 | 61 | 286 | 4.0 | 8.0 | 0.00 | 0.00 | 0.00 | 30 | 1004.2 |
| 20260507221220 | 61 | 141 | 2.0 | 9.0 | 0.00 | 0.00 | 0.00 | 29 | 1004.3 |
| 20260507220717 | 61 | 337 | 2.0 | 4.0 | 0.00 | 0.00 | 0.00 | 30 | 1004.2 |
| 20260507220215 | 60 | 235 | 2.0 | 6.0 | 0.00 | 0.00 | 0.00 | 31 | 1004.3 |
| 20260507215711 | 61 | 274 | 8.0 | 9.0 | 0.00 | 0.00 | 0.00 | 29 | 1004.2 |
| 20260507215209 | 62 | 323 | 6.0 | 8.0 | 0.00 | 0.00 | 0.00 | 27 | 1004.1 |
| 20260507214706 | 62 | 277 | 4.0 | 6.0 | 0.00 | 0.00 | 0.00 | 29 | 1004.2 |
| 20260507214203 | 62 | 264 | 4.0 | 8.0 | 0.00 | 0.00 | 0.00 | 29 | 1004.4 |
| 20260507213658 | 62 | 300 | 4.0 | 10.0 | 0.00 | 0.00 | 0.00 | 29 | 1004.4 |
| 20260507213155 | 62 | 273 | 4.0 | 6.0 | 0.00 | 0.00 | 0.00 | 28 | 1004.2 |
| 20260507212651 | 62 | 275 | 4.0 | 11.0 | 0.00 | 0.00 | 0.00 | 28 | 1004.1 |
| 20260507212148 | 62 | 127 | 2.0 | 7.0 | 0.00 | 0.00 | 0.00 | 28 | 1004.2 |
| 20260507211645 | 62 | 311 | 4.0 | 8.0 | 0.00 | 0.00 | 0.00 | 29 | 1004.1 |
| 20260507211140 | 62 | 237 | 4.0 | 9.0 | 0.00 | 0.00 | 0.00 | 29 | 1004.2 |
| 20260507210639 | 63 | 200 | 6.0 | 10.0 | 0.00 | 0.00 | 0.00 | 28 | 1004.3 |
| 20260507210135 | 63 | 220 | 4.0 | 10.0 | 0.00 | 0.00 | 0.00 | 28 | 1004.2 |
| 20260507205631 | 63 | 279 | 7.0 | 9.0 | 0.00 | 0.00 | 0.00 | 28 | 1004.1 |
| 20260507205128 | 62 | 260 | 6.0 | 8.0 | 0.00 | 0.00 | 0.00 | 29 | 1004.1 |
| 20260507204624 | 63 | 343 | 6.0 | 7.0 | 0.00 | 0.00 | 0.00 | 28 | 1004.0 |
| 20260507204122 | 63 | 254 | 7.0 | 9.0 | 0.00 | 0.00 | 0.00 | 29 | 1004.0 |
| 20260507203620 | 62 | 290 | 3.0 | 6.0 | 0.00 | 0.00 | 0.00 | 30 | 1004.0 |
| 20260507203117 | 62 | 218 | 4.0 | 8.0 | 0.00 | 0.00 | 0.00 | 31 | 1003.9 |
| 20260507202613 | 62 | 293 | 4.0 | 11.0 | 0.00 | 0.00 | 0.00 | 30 | 1003.9 |
| 20260507202109 | 63 | 7 | 4.0 | 13.0 | 0.00 | 0.00 | 0.00 | 29 | 1004.0 |
| 20260507201604 | 63 | 224 | 4.0 | 9.0 | 0.00 | 0.00 | 0.00 | 29 | 1004.1 |
| 20260507201101 | 64 | 269 | 4.0 | 11.0 | 0.00 | 0.00 | 0.00 | 30 | 1004.0 |
| 20260507200557 | 64 | 276 | 2.0 | 9.0 | 0.00 | 0.00 | 0.00 | 29 | 1004.1 |
| 20260507200053 | 63 | 70 | 4.0 | 8.0 | 0.00 | 0.00 | 0.00 | 29 | 1004.1 |
| 20260507195550 | 64 | 125 | 3.0 | 8.0 | 0.00 | 0.00 | 0.00 | 30 | 1004.2 |
| 20260507195048 | 63 | 321 | 4.0 | 4.0 | 0.00 | 0.00 | 0.00 | 33 | 1004.2 |
| 20260507194544 | 62 | 46 | 2.0 | 6.0 | 0.00 | 0.00 | 0.00 | 29 | 1004.3 |
| 20260507194040 | 63 | 203 | 2.0 | 7.0 | 0.00 | 0.00 | 0.00 | 28 | 1004.2 |
| 20260507193537 | 62 | 219 | 6.0 | 13.0 | 0.00 | 0.00 | 0.00 | 30 | 1004.3 |
| 20260507193034 | 62 | 176 | 4.0 | 7.0 | 0.00 | 0.00 | 0.00 | 30 | 1004.3 |
| 20260507192530 | 62 | 289 | 6.0 | 8.0 | 0.00 | 0.00 | 0.00 | 29 | 1004.2 |
| 20260507192027 | 62 | 60 | 5.0 | 8.0 | 0.00 | 0.00 | 0.00 | 29 | 1004.3 |
| 20260507191522 | 62 | 331 | 3.0 | 13.0 | 0.00 | 0.00 | 0.00 | 28 | 1004.4 |
| 20260507191020 | 62 | 186 | 1.0 | 6.0 | 0.00 | 0.00 | 0.00 | 28 | 1004.4 |
| 20260507190517 | 62 | 343 | 3.0 | 6.0 | 0.00 | 0.00 | 0.00 | 30 | 1004.5 |
| 20260507190016 | 62 | 238 | 5.0 | 15.0 | 0.00 | 0.00 | 0.00 | 29 | 1004.7 |
| 20260507185514 | 63 | 129 | 9.0 | 13.0 | 0.00 | 0.00 | 0.00 | 27 | 1004.6 |
| 20260507185010 | 62 | 307 | 4.0 | 18.0 | 0.00 | 0.00 | 0.00 | 30 | 1004.9 |
| 20260507184508 | 62 | 283 | 6.0 | 8.0 | 0.00 | 0.00 | 0.00 | 30 | 1004.6 |
| 20260507184006 | 62 | 211 | 4.0 | 14.0 | 0.00 | 0.00 | 0.00 | 30 | 1005.2 |
| 20260507183501 | 62 | 249 | 4.0 | 7.0 | 0.00 | 0.00 | 0.00 | 31 | 1005.0 |
| 20260507182959 | 62 | 330 | 5.0 | 10.0 | 0.00 | 0.00 | 0.00 | 30 | 1004.8 |
| 20260507182455 | 62 | 213 | 5.0 | 7.0 | 0.00 | 0.00 | 0.00 | 32 | 1005.0 |
| 20260507181951 | 62 | 311 | 8.0 | 11.0 | 0.00 | 0.00 | 0.00 | 31 | 1005.0 |
| 20260507181448 | 61 | 235 | 5.0 | 7.0 | 0.00 | 0.00 | 0.00 | 34 | 1005.0 |
| 20260507180944 | 60 | 275 | 7.0 | 10.0 | 0.00 | 0.00 | 0.00 | 33 | 1005.1 |
| 20260507180441 | 60 | 278 | 7.0 | 11.0 | 0.00 | 0.00 | 0.00 | 34 | 1004.9 |
| 20260507175937 | 60 | 310 | 4.0 | 6.0 | 0.00 | 0.00 | 0.00 | 33 | 1005.1 |
| 20260507175434 | 60 | 243 | 4.0 | 7.0 | 0.00 | 0.00 | 0.00 | 34 | 1005.1 |
| 20260507174932 | 59 | 269 | 3.0 | 9.0 | 0.00 | 0.00 | 0.00 | 35 | 1005.0 |
| 20260507174428 | 58 | 285 | 4.0 | 7.0 | 0.00 | 0.00 | 0.00 | 35 | 1005.2 |
| 20260507173926 | 60 | 250 | 3.0 | 7.0 | 0.00 | 0.00 | 0.00 | 34 | 1005.1 |
| 20260507173423 | 60 | 319 | 5.0 | 8.0 | 0.00 | 0.00 | 0.00 | 36 | 1005.0 |
| 20260507172919 | 62 | 296 | 3.0 | 9.0 | 0.00 | 0.00 | 0.00 | 35 | 1005.0 |
| 20260507172416 | 61 | 87 | 1.0 | 2.0 | 0.00 | 0.00 | 0.00 | 36 | 1005.0 |
| 20260507171912 | 60 | 61 | 3.0 | 6.0 | 0.00 | 0.00 | 0.00 | 36 | 1005.1 |
| 20260507171409 | 61 | 275 | 5.0 | 10.0 | 0.00 | 0.00 | 0.00 | 33 | 1005.1 |
| 20260507170906 | 61 | 346 | 7.0 | 13.0 | 0.00 | 0.00 | 0.00 | 35 | 1005.1 |
| 20260507170402 | 61 | 272 | 7.0 | 11.0 | 0.00 | 0.00 | 0.00 | 35 | 1005.2 |
| 20260507165859 | 60 | 97 | 3.0 | 9.0 | 0.00 | 0.00 | 0.00 | 35 | 1005.2 |
| 20260507165354 | 60 | 258 | 8.0 | 11.0 | 0.00 | 0.00 | 0.00 | 36 | 1005.3 |
| 20260507164851 | 60 | 270 | 5.0 | 8.0 | 0.00 | 0.00 | 0.00 | 36 | 1005.6 |
| 20260507164348 | 60 | 343 | 7.0 | 10.0 | 0.00 | 0.00 | 0.00 | 35 | 1005.6 |
| 20260507163845 | 60 | 296 | 7.0 | 9.0 | 0.00 | 0.00 | 0.00 | 36 | 1005.5 |
| 20260507163342 | 60 | 237 | 5.0 | 13.0 | 0.00 | 0.00 | 0.00 | 36 | 1005.6 |
| 20260507162839 | 60 | 262 | 7.0 | 11.0 | 0.00 | 0.00 | 0.00 | 36 | 1005.5 |
| 20260507162334 | 60 | 327 | 8.0 | 10.0 | 0.00 | 0.00 | 0.00 | 35 | 1005.6 |
| 20260507161832 | 60 | 247 | 8.0 | 13.0 | 0.00 | 0.00 | 0.00 | 36 | 1005.6 |
| 20260507161328 | 59 | 255 | 5.0 | 8.0 | 0.00 | 0.00 | 0.00 | 38 | 1005.9 |
| 20260507160825 | 58 | 344 | 6.0 | 10.0 | 0.00 | 0.00 | 0.00 | 35 | 1005.9 |
| 20260507160321 | 59 | 261 | 5.0 | 7.0 | 0.00 | 0.00 | 0.00 | 38 | 1005.9 |
| 20260507155817 | 60 | 304 | 4.0 | 8.0 | 0.00 | 0.00 | 0.00 | 37 | 1005.7 |
| 20260507155313 | 60 | 301 | 7.0 | 9.0 | 0.00 | 0.00 | 0.00 | 38 | 1005.7 |
| 20260507154809 | 59 | 266 | 7.0 | 10.0 | 0.00 | 0.00 | 0.00 | 38 | 1005.9 |
| 20260507154307 | 59 | 288 | 4.0 | 11.0 | 0.00 | 0.00 | 0.00 | 39 | 1005.9 |
| 20260507153804 | 59 | 300 | 3.0 | 8.0 | 0.00 | 0.00 | 0.00 | 42 | 1006.0 |
| 20260507153300 | 59 | 237 | 6.0 | 8.0 | 0.00 | 0.00 | 0.00 | 43 | 1006.0 |
| 20260507152757 | 58 | 96 | 1.0 | 9.0 | 0.00 | 0.00 | 0.00 | 45 | 1006.2 |
| 20260507152253 | 59 | 291 | 7.0 | 9.0 | 0.00 | 0.00 | 0.00 | 47 | 1006.3 |
| 20260507151749 | 59 | 221 | 3.0 | 8.0 | 0.00 | 0.00 | 0.00 | 50 | 1006.2 |
| 20260507151245 | 58 | 186 | 2.0 | 4.0 | 0.00 | 0.00 | 0.00 | 50 | 1006.2 |
| 20260507150742 | 57 | 207 | 1.0 | 4.0 | 0.00 | 0.00 | 0.00 | 52 | 1006.2 |
| 20260507150239 | 58 | 151 | 8.0 | 10.0 | 0.00 | 0.00 | 0.00 | 51 | 1006.4 |
| 20260507145735 | 57 | 165 | 2.0 | 3.0 | 0.00 | 0.00 | 0.00 | 55 | 1006.2 |
| 20260507145232 | 56 | 264 | 4.0 | 7.0 | 0.00 | 0.00 | 0.00 | 56 | 1006.4 |
| 20260507144729 | 57 | 195 | 2.0 | 6.0 | 0.00 | 0.00 | 0.00 | 56 | 1006.3 |
| 20260507144227 | 57 | 122 | 3.0 | 4.0 | 0.00 | 0.00 | 0.00 | 57 | 1006.3 |
| 20260507143723 | 59 | 177 | 1.0 | 6.0 | 0.00 | 0.00 | 0.00 | 55 | 1006.2 |
| 20260507143220 | 58 | 197 | 4.0 | 6.0 | 0.00 | 0.00 | 0.00 | 55 | 1006.3 |
| 20260507142716 | 57 | 198 | 2.0 | 4.0 | 0.00 | 0.00 | 0.00 | 56 | 1006.2 |
| 20260507142213 | 56 | 213 | 1.0 | 4.0 | 0.00 | 0.00 | 0.00 | 59 | 1006.0 |
| 20260507141709 | 55 | 13 | 5.0 | 7.0 | 0.00 | 0.00 | 0.00 | 57 | 1006.4 |
| 20260507141206 | 56 | 270 | 2.0 | 9.0 | 0.00 | 0.00 | 0.00 | 58 | 1006.3 |
| 20260507140702 | 56 | 245 | 3.0 | 7.0 | 0.00 | 0.00 | 0.00 | 56 | 1006.3 |
| 20260507140200 | 55 | 141 | 2.0 | 3.0 | 0.00 | 0.00 | 0.00 | 57 | 1006.3 |
| 20260507135657 | 55 | 172 | 4.0 | 7.0 | 0.00 | 0.00 | 0.00 | 58 | 1006.3 |
| 20260507135154 | 55 | 211 | 4.0 | 8.0 | 0.00 | 0.00 | 0.00 | 61 | 1006.3 |
| 20260507134650 | 55 | 271 | 4.0 | 8.0 | 0.00 | 0.00 | 0.00 | 58 | 1006.2 |
| 20260507134147 | 56 | 247 | 3.0 | 3.0 | 0.00 | 0.00 | 0.00 | 58 | 1006.1 |
| 20260507133643 | 56 | 357 | 2.0 | 8.0 | 0.00 | 0.00 | 0.00 | 56 | 1006.2 |
| 20260507133140 | 55 | 334 | 3.0 | 8.0 | 0.00 | 0.00 | 0.00 | 56 | 1006.4 |
| 20260507132637 | 55 | 287 | 6.0 | 9.0 | 0.00 | 0.00 | 0.00 | 57 | 1006.5 |
| 20260507132133 | 56 | 214 | 1.0 | 7.0 | 0.00 | 0.00 | 0.00 | 59 | 1006.5 |
| 20260507131630 | 56 | 252 | 3.0 | 4.0 | 0.00 | 0.00 | 0.00 | 60 | 1006.4 |
| 20260507131128 | 55 | 101 | 0.0 | 2.0 | 0.00 | 0.00 | 0.00 | 60 | 1006.8 |
| 20260507130624 | 55 | 66 | 2.0 | 3.0 | 0.00 | 0.00 | 0.00 | 59 | 1006.8 |
| 20260507130122 | 55 | 358 | 2.0 | 4.0 | 0.00 | 0.00 | 0.00 | 62 | 1006.6 |
| 20260507125621 | 55 | 298 | 2.0 | 6.0 | 0.00 | 0.00 | 0.00 | 63 | 1006.5 |
| 20260507125118 | 54 | 275 | 4.0 | 6.0 | 0.00 | 0.00 | 0.00 | 65 | 1006.6 |
| 20260507124614 | 54 | 319 | 2.0 | 3.0 | 0.00 | 0.00 | 0.00 | 65 | 1006.6 |
| 20260507124112 | 53 | 55 | 0.0 | 2.0 | 0.00 | 0.00 | 0.00 | 66 | 1006.3 |
| 20260507123610 | 53 | 60 | 2.0 | 6.0 | 0.00 | 0.00 | 0.00 | 67 | 1006.6 |
| 20260507123107 | 53 | 59 | 1.0 | 7.0 | 0.00 | 0.00 | 0.00 | 67 | 1006.6 |
| 20260507122602 | 53 | 134 | 0.0 | 4.0 | 0.00 | 0.00 | 0.00 | 67 | 1006.5 |
| 20260507122058 | 53 | 302 | 4.0 | 6.0 | 0.00 | 0.00 | 0.00 | 66 | 1006.8 |
| 20260507121554 | 52 | 308 | 1.0 | 3.0 | 0.00 | 0.00 | 0.00 | 69 | 1006.7 |
| 20260507121050 | 52 | 65 | 2.0 | 3.0 | 0.00 | 0.00 | 0.00 | 70 | 1006.9 |
| 20260507120546 | 51 | 140 | 1.0 | 4.0 | 0.00 | 0.00 | 0.00 | 71 | 1006.9 |
| 20260507120043 | 51 | 32 | 3.0 | 6.0 | 0.00 | 0.00 | 0.00 | 72 | 1007.1 |
| 20260507115539 | 51 | 70 | 0.0 | 6.0 | 0.00 | 0.00 | 0.00 | 73 | 1007.0 |
| 20260507115035 | 51 | 290 | 4.0 | 6.0 | 0.00 | 0.00 | 0.00 | 75 | 1006.9 |
| 20260507114531 | 50 | 259 | 3.0 | 3.0 | 0.00 | 0.00 | 0.00 | 75 | 1006.8 |
| 20260507114029 | 50 | 43 | 2.0 | 2.0 | 0.00 | 0.00 | 0.00 | 76 | 1006.5 |
| 20260507113526 | 50 | 35 | 2.0 | 3.0 | 0.00 | 0.00 | 0.00 | 75 | 1006.3 |
| 20260507113023 | 50 | 129 | 0.0 | 0.0 | 0.00 | 0.00 | 0.00 | 79 | 1006.8 |
| 20260507112521 | 49 | 120 | 0.0 | 0.0 | 0.00 | 0.00 | 0.00 | 81 | 1006.8 |
| 20260507112017 | 48 | 99 | 0.0 | 1.0 | 0.00 | 0.00 | 0.00 | 83 | 1006.7 |
| 20260507111514 | 48 | 125 | 0.0 | 1.0 | 0.00 | 0.00 | 0.00 | 83 | 1006.8 |
| 20260507111011 | 47 | 129 | 1.0 | 1.0 | 0.00 | 0.00 | 0.00 | 83 | 1006.8 |
| 20260507110508 | 47 | 160 | 0.0 | 0.0 | 0.00 | 0.00 | 0.00 | 83 | 1006.5 |
| 20260507110004 | 47 | 1 | 1.0 | 2.0 | 0.00 | 0.00 | 0.00 | 83 | 1006.5 |
| 20260507105500 | 47 | 125 | 1.0 | 2.0 | 0.00 | 0.00 | 0.00 | 83 | 1006.3 |
| 20260507104957 | 47 | 127 | 0.0 | 2.0 | 0.00 | 0.00 | 0.00 | 83 | 1006.3 |
| 20260507104454 | 47 | 29 | 1.0 | 1.0 | 0.00 | 0.00 | 0.00 | 82 | 1006.3 |
| 20260507103950 | 47 | 238 | 0.0 | 0.0 | 0.00 | 0.00 | 0.00 | 83 | 1006.4 |
| 20260507103447 | 47 | 172 | 0.0 | 1.0 | 0.00 | 0.00 | 0.00 | 84 | 1006.3 |
| 20260507102943 | 47 | 193 | 0.0 | 2.0 | 0.00 | 0.00 | 0.00 | 84 | 1006.3 |
| 20260507102440 | 47 | 162 | 0.0 | 0.0 | 0.00 | 0.00 | 0.00 | 84 | 1006.3 |
| 20260507101936 | 47 | 88 | 0.0 | 1.0 | 0.00 | 0.00 | 0.00 | 84 | 1006.1 |
| 20260507101431 | 47 | 152 | 0.0 | 0.0 | 0.00 | 0.00 | 0.00 | 84 | 1006.2 |
| 20260507100928 | 47 | 177 | 0.0 | 1.0 | 0.00 | 0.00 | 0.00 | 85 | 1006.3 |
| 20260507100426 | 47 | 96 | 0.0 | 1.0 | 0.00 | 0.00 | 0.00 | 84 | 1005.7 |
| 20260507095924 | 47 | 116 | 1.0 | 1.0 | 0.00 | 0.00 | 0.00 | 84 | 1005.7 |
| 20260507095421 | 47 | 147 | 0.0 | 3.0 | 0.00 | 0.00 | 0.00 | 84 | 1006.3 |
| 20260507094918 | 47 | 66 | 1.0 | 1.0 | 0.00 | 0.00 | 0.00 | 84 | 1006.3 |
| 20260507094414 | 47 | 169 | 1.0 | 3.0 | 0.00 | 0.00 | 0.00 | 84 | 1006.3 |
| 20260507093911 | 48 | 248 | 1.0 | 3.0 | 0.00 | 0.00 | 0.00 | 84 | 1006.1 |
| 20260507093409 | 48 | 294 | 4.0 | 4.0 | 0.00 | 0.00 | 0.00 | 84 | 1006.2 |
| 20260507092907 | 48 | 295 | 2.0 | 3.0 | 0.00 | 0.00 | 0.00 | 84 | 1006.2 |
| 20260507092403 | 48 | 139 | 0.0 | 1.0 | 0.00 | 0.00 | 0.00 | 83 | 1006.4 |
| 20260507091900 | 48 | 345 | 3.0 | 4.0 | 0.00 | 0.00 | 0.00 | 82 | 1006.1 |
| 20260507091356 | 48 | 298 | 1.0 | 2.0 | 0.00 | 0.00 | 0.00 | 82 | 1006.4 |
| 20260507090852 | 48 | 220 | 1.0 | 2.0 | 0.00 | 0.00 | 0.00 | 82 | 1006.5 |
| 20260507090348 | 48 | 255 | 2.0 | 3.0 | 0.00 | 0.00 | 0.00 | 81 | 1006.5 |
| 20260507085845 | 48 | 172 | 1.0 | 2.0 | 0.00 | 0.00 | 0.00 | 80 | 1006.5 |
| 20260507085342 | 48 | 153 | 0.0 | 1.0 | 0.00 | 0.00 | 0.00 | 80 | 1006.4 |
| 20260507084840 | 48 | 122 | 0.0 | 0.0 | 0.00 | 0.00 | 0.00 | 80 | 1006.2 |
| 20260507084335 | 48 | 32 | 1.0 | 4.0 | 0.00 | 0.00 | 0.00 | 79 | 1006.1 |
| 20260507083833 | 48 | 233 | 2.0 | 4.0 | 0.00 | 0.00 | 0.00 | 81 | 1006.1 |
| 20260507083330 | 48 | 170 | 2.0 | 2.0 | 0.00 | 0.00 | 0.00 | 82 | 1006.1 |
| 20260507082826 | 48 | 170 | 1.0 | 2.0 | 0.00 | 0.00 | 0.00 | 82 | 1005.9 |
| 20260507082321 | 48 | 144 | 0.0 | 2.0 | 0.00 | 0.00 | 0.00 | 83 | 1006.0 |
| 20260507081819 | 48 | 315 | 2.0 | 3.0 | 0.00 | 0.00 | 0.00 | 82 | 1005.7 |
| 20260507081315 | 48 | 185 | 1.0 | 2.0 | 0.00 | 0.00 | 0.00 | 82 | 1005.6 |
| 20260507080812 | 48 | 317 | 1.0 | 2.0 | 0.00 | 0.00 | 0.00 | 82 | 1005.7 |
| 20260507080308 | 49 | 149 | 1.0 | 7.0 | 0.00 | 0.00 | 0.00 | 82 | 1005.5 |
| 20260507075803 | 49 | 133 | 1.0 | 3.0 | 0.00 | 0.00 | 0.00 | 81 | 1005.4 |
| 20260507075259 | 49 | 314 | 2.0 | 3.0 | 0.00 | 0.00 | 0.00 | 81 | 1006.0 |
| 20260507074756 | 49 | 249 | 2.0 | 4.0 | 0.00 | 0.00 | 0.00 | 81 | 1006.2 |
| 20260507074254 | 49 | 144 | 0.0 | 2.0 | 0.00 | 0.00 | 0.00 | 81 | 1006.1 |
| 20260507073751 | 49 | 204 | 0.0 | 3.0 | 0.00 | 0.00 | 0.00 | 80 | 1005.9 |
| 20260507073247 | 49 | 328 | 3.0 | 4.0 | 0.00 | 0.00 | 0.00 | 80 | 1005.7 |
| 20260507072745 | 49 | 15 | 6.0 | 10.0 | 0.00 | 0.00 | 0.00 | 80 | 1005.9 |
| 20260507072242 | 49 | 241 | 0.0 | 2.0 | 0.00 | 0.00 | 0.00 | 81 | 1005.3 |
| 20260507071740 | 49 | 164 | 1.0 | 6.0 | 0.00 | 0.00 | 0.00 | 80 | 1005.3 |
| 20260507071236 | 49 | 301 | 3.0 | 8.0 | 0.00 | 0.00 | 0.00 | 81 | 1005.2 |
| 20260507070733 | 49 | 215 | 1.0 | 4.0 | 0.00 | 0.00 | 0.00 | 82 | 1005.5 |
| 20260507070230 | 49 | 214 | 1.0 | 2.0 | 0.00 | 0.00 | 0.00 | 83 | 1005.4 |
| 20260507065726 | 49 | 349 | 2.0 | 2.0 | 0.00 | 0.00 | 0.00 | 84 | 1005.4 |
| 20260507065223 | 49 | 345 | 2.0 | 8.0 | 0.00 | 0.00 | 0.00 | 85 | 1005.4 |
| 20260507064720 | 49 | 203 | 2.0 | 9.0 | 0.00 | 0.00 | 0.00 | 86 | 1005.2 |
| 20260507064220 | 49 | 306 | 4.0 | 6.0 | 0.00 | 0.00 | 0.00 | 87 | 1005.2 |
| 20260507063716 | 49 | 197 | 1.0 | 2.0 | 0.00 | 0.00 | 0.00 | 87 | 1005.4 |
| 20260507063213 | 49 | 85 | 0.0 | 2.0 | 0.00 | 0.00 | 0.00 | 87 | 1005.3 |
| 20260507062710 | 49 | 107 | 0.0 | 0.0 | 0.00 | 0.00 | 0.00 | 86 | 1005.1 |
| 20260507062208 | 50 | 84 | 1.0 | 2.0 | 0.00 | 0.00 | 0.00 | 86 | 1005.3 |
| 20260507061705 | 50 | 18 | 0.0 | 1.0 | 0.00 | 0.00 | 0.00 | 86 | 1005.4 |
| 20260507061203 | 50 | 212 | 1.0 | 3.0 | 0.00 | 0.00 | 0.00 | 85 | 1005.6 |
| 20260507060701 | 50 | 326 | 1.0 | 2.0 | 0.00 | 0.00 | 0.00 | 85 | 1005.3 |
| 20260507060157 | 50 | 308 | 1.0 | 2.0 | 0.00 | 0.00 | 0.00 | 85 | 1005.4 |
| 20260507055653 | 50 | 357 | 1.0 | 1.0 | 0.00 | 0.00 | 0.00 | 85 | 1005.5 |
| 20260507055149 | 50 | 149 | 0.0 | 2.0 | 0.00 | 0.00 | 0.00 | 85 | 1005.7 |
| 20260507054645 | 50 | 341 | 2.0 | 3.0 | 0.00 | 0.00 | 0.00 | 85 | 1006.1 |
| 20260507054142 | 50 | 327 | 2.0 | 3.0 | 0.00 | 0.00 | 0.00 | 85 | 1005.6 |
| 20260507053640 | 50 | 251 | 1.0 | 4.0 | 0.00 | 0.00 | 0.00 | 85 | 1005.4 |
| 20260507053138 | 50 | 264 | 3.0 | 7.0 | 0.00 | 0.00 | 0.00 | 85 | 1005.4 |
| 20260507052636 | 50 | 294 | 3.0 | 4.0 | 0.00 | 0.00 | 0.00 | 86 | 1005.5 |
| 20260507052132 | 50 | 259 | 3.0 | 3.0 | 0.00 | 0.00 | 0.00 | 86 | 1005.9 |
| 20260507051630 | 50 | 183 | 1.0 | 4.0 | 0.00 | 0.00 | 0.00 | 86 | 1005.7 |
| 20260507051126 | 50 | 307 | 4.0 | 7.0 | 0.00 | 0.00 | 0.00 | 87 | 1005.7 |
| 20260507050623 | 50 | 295 | 3.0 | 6.0 | 0.00 | 0.00 | 0.00 | 87 | 1005.9 |
| 20260507050120 | 50 | 298 | 2.0 | 3.0 | 0.00 | 0.00 | 0.00 | 87 | 1005.4 |
| 20260507045617 | 50 | 240 | 2.0 | 3.0 | 0.00 | 0.00 | 0.00 | 87 | 1005.2 |
| 20260507045114 | 50 | 199 | 4.0 | 7.0 | 0.00 | 0.00 | 0.00 | 86 | 1005.3 |
| 20260507044610 | 50 | 319 | 3.0 | 4.0 | 0.00 | 0.00 | 0.00 | 87 | 1005.3 |
| 20260507044108 | 51 | 252 | 3.0 | 4.0 | 0.00 | 0.00 | 0.00 | 88 | 1005.6 |
| 20260507043603 | 51 | 109 | 0.0 | 2.0 | 0.00 | 0.00 | 0.00 | 88 | 1005.4 |
| 20260507043100 | 51 | 269 | 6.0 | 8.0 | 0.00 | 0.00 | 0.00 | 88 | 1005.7 |
| 20260507042556 | 51 | 70 | 1.0 | 3.0 | 0.00 | 0.00 | 0.00 | 89 | 1005.9 |
| 20260507042052 | 51 | 312 | 2.0 | 7.0 | 0.00 | 0.00 | 0.00 | 90 | 1006.0 |
| 20260507041549 | 51 | 107 | 1.0 | 2.0 | 0.00 | 0.00 | 0.00 | 90 | 1005.7 |
| 20260507041046 | 51 | 141 | 0.0 | 1.0 | 0.00 | 0.00 | 0.00 | 90 | 1005.6 |
| 20260507040542 | 51 | 271 | 3.0 | 4.0 | 0.00 | 0.00 | 0.00 | 90 | 1005.3 |
| 20260507040039 | 51 | 266 | 3.0 | 4.0 | 0.00 | 0.20 | 0.20 | 90 | 1005.5 |